GW1195 Weather Reports


Display with metric or nautical units.
time (UTC)temp
F
wind
direction
speed
MPH
gust
MPH
rain 1hr
in
rain 24hr
in
rain mn
in
humidity
%
barometer
mb
20260505230047 61 331 3.0 9.0 0.00 0.00 0.00 76 1017.2
20260505224547 61 348 2.0 6.0 0.00 0.00 0.00 76 1017.2
20260505223041 61 0 2.0 9.0 0.00 0.00 0.00 75 1017.3
20260505221544 62 339 2.0 5.0 0.00 0.00 0.00 72 1017.2
20260505220057 62 228 1.0 6.0 0.00 0.00 0.00 73 1017.3
20260505214546 61 184 1.0 8.0 0.00 0.00 0.00 74 1017.3
20260505213040 60 218 0.0 10.0 0.00 0.00 0.00 76 1017.4
20260505211608 60 257 2.0 7.0 0.00 0.00 0.00 76 1017.5
20260505210045 59 0 0.0 4.0 0.00 0.00 0.00 77 1017.7
20260505204555 59 164 0.0 4.0 0.00 0.00 0.00 77 1017.6
20260505203056 59 269 1.0 4.0 0.00 0.00 0.00 77 1017.7
20260505201541 59 231 0.0 3.0 0.00 0.00 0.00 78 1017.6
20260505200038 58 238 1.0 5.0 0.00 0.00 0.00 79 1017.7
20260505194542 58 288 1.0 4.0 0.00 0.00 0.00 78 1017.7
20260505193043 58 293 2.0 6.0 0.00 0.00 0.00 78 1017.7
20260505191542 58 226 1.0 6.0 0.00 0.00 0.00 79 1017.6
20260505190041 58 0 0.0 3.0 0.00 0.00 0.00 80 1017.6
20260505184543 57 317 1.0 4.0 0.00 0.00 0.00 80 1017.6
20260505183036 57 0 0.0 2.0 0.00 0.00 0.00 81 1017.6
20260505181605 57 0 0.0 4.0 0.00 0.00 0.00 81 1017.5
20260505180100 57 0 0.0 2.0 0.00 0.00 0.00 81 1017.4
20260505174544 57 0 0.0 2.0 0.00 0.00 0.00 82 1017.4
20260505173041 56 0 0.0 3.0 0.00 0.00 0.00 83 1017.1
20260505171542 56 0 0.0 1.0 0.00 0.00 0.00 83 1017.1
20260505170036 56 0 0.0 2.0 0.00 0.00 0.00 84 1017.0
20260505164542 56 183 0.0 3.0 0.00 0.00 0.00 85 1016.9
20260505163046 55 268 0.0 2.0 0.00 0.00 0.00 85 1016.9
20260505161541 55 0 0.0 1.0 0.00 0.00 0.00 86 1016.6
20260505153042 54 93 0.0 2.0 0.00 0.00 0.00 90 1016.5
20260505151542 54 0 1.0 4.0 0.00 0.00 0.00 91 1016.4
20260505124540 53 0 0.0 1.0 0.00 0.00 0.00 94 1015.5
20260505123048 53 0 1.0 4.0 0.00 0.00 0.00 94 1015.6
20260505121543 53 0 0.0 2.0 0.00 0.00 0.00 93 1015.3
20260505114541 53 0 0.0 3.0 0.00 0.00 0.00 93 1015.2
20260505113036 53 0 0.0 2.0 0.00 0.00 0.00 92 1015.3
20260505111542 53 170 1.0 4.0 0.00 0.00 0.00 91 1015.3
20260505110105 53 0 0.0 6.0 0.00 0.00 0.00 91 1015.3
20260505101542 53 240 1.0 5.0 0.00 0.00 0.00 90 1015.0
20260505100044 53 0 3.0 7.0 0.00 0.00 0.00 90 1015.1
20260505094541 53 0 1.0 4.0 0.00 0.00 0.00 91 1015.0
20260505093049 53 0 0.0 5.0 0.00 0.00 0.00 92 1015.1
20260505091535 53 168 1.0 5.0 0.00 0.00 0.00 91 1015.0
20260505090043 54 163 1.0 6.0 0.00 0.00 0.00 91 1014.9
20260505084551 54 186 1.0 4.0 0.00 0.00 0.00 91 1014.8
20260505083054 54 144 1.0 3.0 0.00 0.00 0.00 91 1014.8
20260505081540 54 171 0.0 5.0 0.00 0.00 0.00 91 1014.8
20260505080038 54 159 0.0 4.0 0.00 0.00 0.00 91 1014.9
20260505074544 54 165 1.0 5.0 0.00 0.00 0.00 91 1014.8
20260505073048 53 0 0.0 2.0 0.00 0.00 0.00 91 1014.7
20260505071540 53 0 0.0 2.0 0.00 0.00 0.00 91 1014.8
20260505070042 53 171 0.0 2.0 0.00 0.00 0.00 92 1014.6
20260505064614 53 173 1.0 4.0 0.00 0.00 0.00 92 1014.6
20260505063041 53 0 1.0 5.0 0.00 0.00 0.00 92 1014.6
20260505061541 53 183 2.0 5.0 0.00 0.00 0.00 92 1014.6
20260505060044 54 0 0.0 4.0 0.00 0.00 0.00 91 1014.7
20260505054548 54 150 1.0 4.0 0.00 0.00 0.00 91 1014.7
20260505053045 54 164 1.0 5.0 0.00 0.00 0.00 90 1014.7
20260505051542 54 174 2.0 6.0 0.00 0.00 0.00 90 1014.7
20260505041537 54 242 2.0 7.0 0.00 0.00 0.00 89 1014.4
20260505040050 55 203 2.0 6.0 0.00 0.00 0.00 88 1014.3
20260505034603 55 199 2.0 7.0 0.00 0.00 0.00 87 1014.1
20260505033043 55 220 2.0 7.0 0.00 0.00 0.00 86 1014.0
20260505031544 55 151 2.0 8.0 0.00 0.00 0.00 86 1014.1
20260505030047 56 207 1.0 6.0 0.00 0.00 0.00 85 1013.9
20260505024545 56 0 1.0 4.0 0.00 0.00 0.00 84 1013.8
20260505023046 57 232 2.0 7.0 0.00 0.00 0.00 83 1013.8
20260505021541 57 263 1.0 7.0 0.00 0.00 0.00 82 1013.7
20260505020053 57 254 4.0 9.0 0.00 0.00 0.00 82 1013.8
20260505014542 57 261 3.0 11.0 0.00 0.00 0.00 82 1014.0
20260505013041 58 238 2.0 8.0 0.00 0.00 0.00 80 1014.1
20260505011546 59 265 4.0 9.0 0.00 0.00 0.00 79 1014.0
20260505010104 59 264 3.0 7.0 0.00 0.00 0.00 78 1014.1
20260505004558 60 0 1.0 7.0 0.00 0.00 0.00 78 1014.0
20260505003042 60 235 3.0 10.0 0.00 0.00 0.00 78 1014.1
20260505001543 60 265 4.0 11.0 0.00 0.00 0.00 77 1014.2
20260505000041 60 267 4.0 11.0 0.00 0.00 0.00 77 1014.2
20260504234544 61 265 5.0 12.0 0.00 0.00 0.00 75 1014.1
20260504233044 61 286 5.0 10.0 0.00 0.00 0.00 76 1014.2
20260504231558 61 231 5.0 12.0 0.00 0.00 0.00 76 1014.3